This is the latest recevied weather packets stored in our database for station/object SHLBYV-WX. If no packets are shown the sender has not sent any weather packets the latest 10 day(s).
| Time | Temp. | Humidity | Pressure | Rain* | Wind** | Luminosity | Snow |
|---|---|---|---|---|---|---|---|
| 1777634149 | 2.78° C | 94% | 984.5 hPa | 0 mm | - | - | - |
| 1777633278 | 2.78° C | 94% | 984.5 hPa | 0 mm | - | - | - |
| 1777632349 | 2.22° C | 93% | 984.1 hPa | 0 mm | - | - | - |
| 1777631468 | 2.22° C | 93% | 984.7 hPa | 0 mm | - | - | - |
| 1777630549 | 3.33° C | 93% | 984.8 hPa | 0 mm | - | - | - |
| 1777629683 | 3.33° C | 93% | 984.8 hPa | 0 mm | - | - | - |
| 1777628749 | 3.33° C | 93% | 985.2 hPa | 0 mm | - | - | - |
| 1777627865 | 3.33° C | 90% | 985 hPa | 0 mm | - | - | - |
| 1777626948 | 2.78° C | 90% | 985 hPa | 0 mm | - | - | - |
| 1777626075 | 2.78° C | 90% | 985 hPa | 0 mm | - | - | - |
| 1777625147 | 2.78° C | 85% | 984.9 hPa | 0 mm | - | - | - |
| 1777624262 | 2.78° C | 89% | 984.4 hPa | 0 mm | - | - | - |
| 1777623348 | 3.33° C | 89% | 984.4 hPa | 0 mm | - | - | - |
| 1777622477 | 3.33° C | 89% | 984.4 hPa | 0 mm | - | - | - |
| 1777621548 | 3.33° C | 88% | 984.7 hPa | 0 mm | - | - | - |
| 1777620667 | 3.33° C | 88% | 984.7 hPa | 0 mm | - | - | - |
| 1777619748 | 3.33° C | 88% | 984.7 hPa | 0 mm | - | - | - |
| 1777618877 | 3.89° C | 88% | 984.7 hPa | 0 mm | - | - | - |
| 1777617948 | 3.89° C | 86% | 985.3 hPa | 0 mm | - | - | - |
| 1777617068 | 3.89° C | 86% | 984.5 hPa | 0 mm | - | - | - |
| 1777616148 | 3.89° C | 86% | 984.5 hPa | 0 mm | - | - | - |
| 1777615287 | 3.89° C | 86% | 984.5 hPa | 0 mm | - | - | - |
| 1777614349 | 3.89° C | 83% | 985.7 hPa | 0 mm | - | - | - |
| 1777613467 | 3.89° C | 89% | 985.2 hPa | 0 mm | - | - | - |
| 1777612551 | 3.89° C | 89% | 985.2 hPa | 0 mm | - | - | - |
* Rain latest hour (hover to see other rain measurements)
** Current wind speed in m/s (hover to see current wind gust speed)